Location: Copper Breaks State Park
(34.1132°N, 99.7492°W)
Time: 12:32:02
(UTC-05:00)

Amateur Radio Satellites - All Passes

Search period start: 02 September 2014 12:02
Search period end: 03 September 2014 12:02
Location: Copper Breaks State Park, 34.1132°N, 99.7492°W

Satellite Date Start Highest point End Downlink Frequencies (MHz)
Time Altitude Azimuth
PANSAT 02 Sep 12:04:33 12:07:59 31° 172° (S) 12:11:26 not established
UKube-1 02 Sep 12:13:26 12:16:15 17° 292° (WNW) 12:19:05 145.840 MHz, 145.915 MHz
Oscar 11 02 Sep 12:16:02 12:19:30 24° 290° (WNW) 12:22:58 145.825 FM, Beacon 2401.500 USB
Oscar 10/S400 02 Sep 12:17:32 12:35:39 10° 180° (S) 12:45:37 145.825 - 145.975 CW/USB, Beacon 145.810 USB
SO-50 02 Sep 12:34:40 12:39:06 36° 55° (NE) 12:43:33 436.795 FM
HO-68 02 Sep 12:43:48 12:47:27 15° 302° (WNW) 12:51:07 435.675 MHz FM
FUNcube-1 02 Sep 12:49:17 12:53:09 28° 289° (WNW) 12:57:02 145.950 - 145.970 MHz USB
JAS-1B 02 Sep 13:17:17 13:22:27 16° 59° (ENE) 13:27:19 435.800 - 435.900 CW/SSB
MaSat-1 02 Sep 13:28:21 13:33:10 81° 293° (WNW) 13:38:20 437.345 MHz
Oscar 16 02 Sep 13:31:44 13:35:44 23° 68° (ENE) 13:39:45 437.025 USB, Beacon 2401.1428
ITAMSAT 1 02 Sep 13:39:28 13:39:43 10° 62° (ENE) 13:39:57 435.822 SSB
PANSAT 02 Sep 13:44:19 13:47:50 34° 185° (S) 13:51:21 not established
Uribyol 2 02 Sep 13:46:18 13:48:46 14° 64° (ENE) 13:51:13 436.500 FM
AO-27 02 Sep 14:05:27 14:09:12 21° 67° (ENE) 14:12:58 436.795 MHz FM
SO-50 02 Sep 14:15:43 14:19:26 22° 250° (WSW) 14:23:11 436.795 FM
UOSAT-12 02 Sep 14:18:23 14:22:35 31° 54° (NE) 14:26:43 437.025 FM, 437.400 FM
Oscar 19 02 Sep 14:34:08 14:39:17 86° 256° (WSW) 14:44:30 437.125 CW, 437.150 USB
AO-Echo 02 Sep 14:38:33 14:43:21 47° 73° (ENE) 14:48:02 ?
Gurwin Techsat 1B 02 Sep 14:49:42 14:53:54 25° 68° (ENE) 14:58:07 435.225 FM
JAS-1B 02 Sep 15:02:00 15:11:49 78° 74° (ENE) 15:20:39 435.800 - 435.900 CW/SSB
Oscar 16 02 Sep 15:10:09 15:14:50 35° 262° (W) 15:19:34 437.025 USB, Beacon 2401.1428
ITAMSAT 1 02 Sep 15:13:17 15:18:27 83° 257° (WSW) 15:23:38 435.822 SSB
Uribyol 2 02 Sep 15:22:34 15:27:39 63° 259° (WSW) 15:32:46 436.500 FM
PANSAT 02 Sep 15:24:47 15:27:35 19° 197° (SSW) 15:30:23 not established
RS-15 02 Sep 15:25:13 15:33:24 23° 37° (NE) 15:41:44 29.354 - 29.394 USB, Beacon 29.352 USB
AO-7 02 Sep 15:34:07 15:39:53 21° 57° (ENE) 15:45:38 29.400 - 29.500 MHz
TMSAT-1 02 Sep 15:38:11 15:43:18 53° 73° (ENE) 15:48:26 436.925 FM
AO-27 02 Sep 15:43:34 15:48:24 40° 261° (W) 15:53:15 436.795 MHz FM
Sapphire 02 Sep 15:47:50 15:50:41 15° 104° (ESE) 15:53:34 437.095 MHz 1200 baud AX-25 AFSK
UOSAT-12 02 Sep 15:58:47 16:02:34 25° 249° (WSW) 16:06:18 437.025 FM, 437.400 FM
PCSat 02 Sep 16:14:53 16:19:33 31° 108° (ESE) 16:24:14 145.825 MHz
AO-Echo 02 Sep 16:19:23 16:22:17 15° 266° (W) 16:25:09 ?
Gurwin Techsat 1B 02 Sep 16:28:51 16:33:38 35° 262° (W) 16:38:28 435.225 FM
ISS 02 Sep 16:51:26 16:54:24 29° 37° (NE) 16:57:21 145.800 FM
JAS-1B 02 Sep 16:55:30 17:02:36 23° 266° (W) 17:09:20 435.800 - 435.900 CW/SSB
OPAL 02 Sep 17:09:19 17:12:40 17° 96° (E) 17:15:59 ?
Uosat F 02 Sep 17:09:56 17:14:56 78° 75° (ENE) 17:19:57 435.120 FM
TMSAT-1 02 Sep 17:20:26 17:23:28 15° 267° (W) 17:26:31 436.925 FM
AO-7 02 Sep 17:23:25 17:31:46 78° 254° (WSW) 17:40:07 29.400 - 29.500 MHz
Sapphire 02 Sep 17:28:13 17:33:32 60° 298° (WNW) 17:38:53 437.095 MHz 1200 baud AX-25 AFSK
JAS-2 02 Sep 17:28:15 17:30:50 13° 65° (ENE) 17:33:18 435.800 - 435.900 CW/SSB, 435.910 FM
RS-15 02 Sep 17:36:30 17:47:42 80° 61° (ENE) 17:59:22 29.354 - 29.394 USB, Beacon 29.352 USB
Hamsat 02 Sep 17:52:32 17:55:14 16° 68° (ENE) 17:57:56 145.90 MHz
PCSat 02 Sep 17:58:07 18:02:51 31° 303° (WNW) 18:07:38 145.825 MHz
ISS 02 Sep 18:28:24 18:31:00 21° 231° (SW) 18:33:34 145.800 FM
OPAL 02 Sep 18:46:43 18:51:43 48° 290° (WNW) 18:56:41 ?
JAS-2 02 Sep 19:09:15 19:15:27 72° 258° (WSW) 19:21:00 435.800 - 435.900 CW/SSB, 435.910 FM
AO-7 02 Sep 19:23:16 19:25:33 11° 269° (W) 19:27:50 29.400 - 29.500 MHz
Hamsat 02 Sep 19:26:54 19:30:51 36° 262° (W) 19:34:52 145.90 MHz
SO-67 02 Sep 19:42:45 19:45:57 36° 75° (ENE) 19:49:10 435.3500 MHz FM
RS-15 02 Sep 19:50:54 19:58:52 23° 258° (WSW) 20:07:05 29.354 - 29.394 USB, Beacon 29.352 USB
STRAND 1 02 Sep 20:35:34 20:40:41 83° 284° (WNW) 20:45:48 ?
HO-68 02 Sep 21:17:56 21:24:39 47° 68° (ENE) 21:31:23 435.675 MHz FM
UKube-1 02 Sep 21:29:07 21:32:13 20° 68° (ENE) 21:35:20 145.840 MHz, 145.915 MHz
Oscar 11 02 Sep 21:33:00 21:34:57 13° 66° (ENE) 21:36:54 145.825 FM, Beacon 2401.500 USB
Saudisat 1A 02 Sep 21:52:58 21:56:50 31° 113° (ESE) 22:00:45 436.775 MHz
FUNcube-1 02 Sep 22:08:28 22:09:46 11° 66° (ENE) 22:11:05 145.950 - 145.970 MHz USB
KITSAT 1 02 Sep 22:39:14 22:46:11 33° 106° (ESE) 22:53:08 435.175 FM
UKube-1 02 Sep 23:04:23 23:08:11 30° 262° (W) 23:12:00 145.840 MHz, 145.915 MHz
Oscar 11 02 Sep 23:06:31 23:10:41 47° 261° (W) 23:14:53 145.825 FM, Beacon 2401.500 USB
HO-68 02 Sep 23:06:32 23:12:27 28° 263° (W) 23:18:25 435.675 MHz FM
MaSat-1 02 Sep 23:26:53 23:31:11 76° 249° (WSW) 23:34:49 437.345 MHz
Saudisat 1A 02 Sep 23:32:57 23:36:25 22° 308° (NW) 23:39:55 436.775 MHz
FUNcube-1 02 Sep 23:41:36 23:45:39 50° 261° (W) 23:49:48 145.950 - 145.970 MHz USB
KITSAT 1 03 Sep 00:33:29 00:41:14 49° 303° (WNW) 00:49:02 435.175 FM
PCSat 03 Sep 01:07:50 01:10:17 13° 48° (NE) 01:12:43 145.825 MHz
Oscar 10/S400 03 Sep 01:24:14 02:16:56 64° 207° (SSW) 11:52:59 145.825 - 145.975 CW/USB, Beacon 145.810 USB
Oscar 16 03 Sep 01:50:11 01:50:32 10° 91° (E) 01:50:53 437.025 USB, Beacon 2401.1428
Sapphire 03 Sep 02:19:57 02:25:12 49° 60° (ENE) 02:30:25 437.095 MHz 1200 baud AX-25 AFSK
AO-40 03 Sep 02:31:45 03:44:53 18° 237° (WSW) 05:47:50 Beacon 2401.320
KITSAT 1 03 Sep 02:37:14 02:38:51 11° 326° (NW) 02:40:27 435.175 FM
SO-50 03 Sep 02:46:46 02:50:25 25° 111° (ESE) 02:54:07 436.795 FM
PCSat 03 Sep 02:48:55 02:54:22 84° 245° (WSW) 02:59:46 145.825 MHz
Oscar 19 03 Sep 02:49:46 02:54:45 46° 100° (E) 02:59:42 437.125 CW, 437.150 USB
AO-Echo 03 Sep 02:50:20 02:53:42 19° 95° (E) 02:57:06 ?
JAS-1B 03 Sep 02:55:35 03:00:01 20° 92° (E) 03:04:11 435.800 - 435.900 CW/SSB
Gurwin Techsat 1B 03 Sep 03:11:05 03:13:17 13° 92° (E) 03:15:28 435.225 FM
Oscar 16 03 Sep 03:25:08 03:30:20 74° 285° (WNW) 03:35:29 437.025 USB, Beacon 2401.1428
ITAMSAT 1 03 Sep 03:30:06 03:35:07 48° 100° (E) 03:40:07 435.822 SSB
Uribyol 2 03 Sep 03:39:02 03:44:12 64° 102° (ESE) 03:49:21 436.500 FM
TMSAT-1 03 Sep 03:58:16 04:02:48 29° 97° (E) 04:07:19 436.925 FM
AO-27 03 Sep 03:59:59 04:05:11 83° 284° (WNW) 04:10:23 436.795 MHz FM
Sapphire 03 Sep 04:04:33 04:08:11 18° 255° (WSW) 04:11:48 437.095 MHz 1200 baud AX-25 AFSK
OPAL 03 Sep 04:20:39 04:24:21 21° 65° (ENE) 04:28:06 ?
UOSAT-12 03 Sep 04:26:46 04:30:12 21° 110° (ESE) 04:33:40 437.025 FM, 437.400 FM
SO-50 03 Sep 04:27:01 04:30:50 27° 307° (NW) 04:34:45 436.795 FM
AO-Echo 03 Sep 04:28:18 04:32:31 34° 288° (WNW) 04:36:47 ?
Oscar 19 03 Sep 04:30:14 04:33:41 18° 294° (WNW) 04:37:07 437.125 CW, 437.150 USB
JAS-1B 03 Sep 04:45:04 04:51:02 43° 291° (WNW) 04:56:25 435.800 - 435.900 CW/SSB
Gurwin Techsat 1B 03 Sep 04:48:21 04:53:37 64° 286° (WNW) 04:58:50 435.225 FM
ITAMSAT 1 03 Sep 05:10:50 05:14:11 18° 294° (WNW) 05:17:32 435.822 SSB
Uribyol 2 03 Sep 05:20:37 05:23:05 14° 296° (WNW) 05:25:32 436.500 FM
Uosat F 03 Sep 05:21:50 05:26:18 32° 98° (E) 05:30:45 435.120 FM
AO-7 03 Sep 05:29:31 05:37:25 46° 101° (ESE) 05:45:14 29.400 - 29.500 MHz
TMSAT-1 03 Sep 05:38:06 05:42:37 29° 291° (WNW) 05:47:07 436.925 FM
RS-15 03 Sep 05:50:55 05:55:15 13° 98° (E) 05:59:30 29.354 - 29.394 USB, Beacon 29.352 USB
OPAL 03 Sep 05:58:11 06:02:54 40° 259° (W) 06:07:43 ?
UOSAT-12 03 Sep 06:05:52 06:10:05 35° 305° (NW) 06:14:23 437.025 FM, 437.400 FM
JAS-2 03 Sep 06:23:18 06:26:19 15° 95° (E) 06:29:28 435.800 - 435.900 CW/SSB, 435.910 FM
Saudisat 1A 03 Sep 06:25:12 06:26:17 11° 46° (NE) 06:27:21 436.775 MHz
Uosat F 03 Sep 07:00:56 07:04:53 24° 292° (WNW) 07:08:50 435.120 FM
Hamsat 03 Sep 07:16:06 07:20:20 51° 99° (E) 07:24:29 145.90 MHz
AO-7 03 Sep 07:22:41 07:29:54 35° 297° (WNW) 07:37:07 29.400 - 29.500 MHz
STRAND 1 03 Sep 07:47:44 07:52:50 85° 257° (WSW) 07:57:57 ?
RS-15 03 Sep 07:54:37 08:05:45 77° 115° (ESE) 08:16:38 29.354 - 29.394 USB, Beacon 29.352 USB
Saudisat 1A 03 Sep 08:01:59 08:06:24 79° 242° (WSW) 08:10:47 436.775 MHz
JAS-2 03 Sep 08:06:19 08:11:36 58° 286° (WNW) 08:17:24 435.800 - 435.900 CW/SSB, 435.910 FM
KITSAT 1 03 Sep 08:30:38 08:38:18 45° 56° (NE) 08:45:54 435.175 FM
SO-67 03 Sep 08:42:42 08:46:10 80° 101° (E) 08:49:37 435.3500 MHz FM
Hamsat 03 Sep 08:54:20 08:55:47 12° 294° (WNW) 08:57:13 145.90 MHz
ISS 03 Sep 09:30:53 09:34:11 75° 135° (SE) 09:37:30 145.800 FM
PANSAT 03 Sep 10:00:48 10:03:11 16° 161° (SSE) 10:05:35 not established
RS-15 03 Sep 10:09:59 10:19:08 29° 317° (NW) 10:28:17 29.354 - 29.394 USB, Beacon 29.352 USB
KITSAT 1 03 Sep 10:26:19 10:33:27 36° 253° (WSW) 10:40:34 435.175 FM
HO-68 03 Sep 10:36:42 10:43:51 69° 104° (ESE) 10:50:59 435.675 MHz FM
UKube-1 03 Sep 10:55:44 11:00:02 59° 101° (ESE) 11:04:18 145.840 MHz, 145.915 MHz
Oscar 11 03 Sep 10:57:52 11:02:00 40° 99° (E) 11:06:04 145.825 FM, Beacon 2401.500 USB
ISS 03 Sep 11:09:35 11:11:15 13° 332° (NNW) 11:12:55 145.800 FM
SO-50 03 Sep 11:23:09 11:24:48 12° 45° (NE) 11:26:28 436.795 FM
FUNcube-1 03 Sep 11:34:09 11:38:29 41° 99° (E) 11:42:50 145.950 - 145.970 MHz USB
PANSAT 03 Sep 11:39:26 11:42:54 31° 173° (S) 11:46:21 not established
